Pittsburgh Allegheny Co., PA

11:08 PM EST on November 19, 2019 (GMT -0500)
Allegheny County

Weather History for KAGC - September, 2019

Change the Weather History Date:

Monday, September 23, 2019

  Actual Average Record
Temperature  
Mean Temperature 70 °F -  
Max Temperature 75 °F 71 °F 88 °F (2010)
Min Temperature 64 °F 50 °F 39 °F (1991)
Cooling Degree Days 4    
Growing Degree Days 20 (Base 50)    
Moisture  
Dew Point 62 °F    
Average Humidity 77    
Maximum Humidity 93    
Minimum Humidity 66    
Precipitation  
Precipitation 0.02 in - - ()
Sea Level Pressure  
Sea Level Pressure 29.93 in    
Wind  
Wind Speed 10 mph (SSW)    
Max Wind Speed 17 mph    
Max Gust Speed 26 mph    
Visibility 10 miles    
Events Rain    
Averages and records for this station are not official NWS values.
T = Trace of Precipitation, MM = Missing Value Source: NWS Daily Summary

Daily Weather History Graph

Daily Weather History Graph

Search for Another Location

Airport or City:

Astronomy

Sep. 23, 2019 Rise Set
Actual Time 7:08 AM EDT 7:15 PM EDT
Civil Twilight 6:40 AM EDT 7:42 PM EDT
Nautical Twilight 6:09 AM EDT 8:14 PM EDT
Astronomical Twilight 5:36 AM EDT 8:46 PM EDT
Moon 12:48 AM EDT (9/23) 4:08 PM EDT (9/23)
Length of Visible Light 13h 01m
Length of Day
12h 07m
Waning Crescent, 33% of the Moon is Illuminated
Sep 23
Waning Crescent
Sep 28
New
Oct 5
First Quarter
Oct 13
Full
Oct 21
Last Quarter

Hourly Weather History & Observations

Time (EDT) Temp. Dew Point Humidity Pressure Visibility Wind Dir Wind Speed Gust Speed Precip Events Conditions
12:53 AM 71.1 °F 60.1 °F 68% 29.97 in 10.0 mi South 6.9 mph - N/A   Clear
1:53 AM 71.1 °F 59.0 °F 66% 29.96 in 10.0 mi SSW 6.9 mph - N/A   Clear
2:53 AM 70.0 °F 59.0 °F 68% 29.96 in 10.0 mi South 8.1 mph - N/A   Clear
3:53 AM 69.1 °F 57.9 °F 68% 29.95 in 10.0 mi South 9.2 mph - N/A   Clear
4:53 AM 66.0 °F 59.0 °F 78% 29.94 in 10.0 mi South 8.1 mph - N/A   Clear
5:53 AM 66.0 °F 57.9 °F 75% 29.94 in 10.0 mi South 9.2 mph - N/A   Clear
6:53 AM 66.9 °F 57.9 °F 73% 29.94 in 10.0 mi South 11.5 mph - N/A   Mostly Cloudy
7:53 AM 68.0 °F 57.9 °F 70% 29.95 in 10.0 mi South 8.1 mph - N/A   Mostly Cloudy
8:53 AM 68.0 °F 57.9 °F 70% 29.95 in 10.0 mi South 6.9 mph - N/A   Overcast
9:53 AM 68.0 °F 61.0 °F 78% 29.95 in 10.0 mi South 6.9 mph - 0.01 in   Overcast
10:53 AM 71.1 °F 62.1 °F 73% 29.94 in 10.0 mi SSW 12.7 mph - N/A   Mostly Cloudy
11:44 AM 72.0 °F 63.0 °F 73% 29.93 in 10.0 mi SW 15.0 mph 21.9 mph N/A   Overcast
11:53 AM 71.1 °F 63.0 °F 75% 29.93 in 10.0 mi SW 13.8 mph - N/A   Overcast
12:46 PM 70.0 °F 64.0 °F 81% 29.93 in 10.0 mi SSW 12.7 mph 24.2 mph 0.00 in   Overcast
12:53 PM 70.0 °F 64.0 °F 81% 29.92 in 10.0 mi SSW 17.3 mph 23.0 mph 0.00 in   Overcast
1:53 PM 70.0 °F 64.0 °F 81% 29.90 in 10.0 mi SSW 12.7 mph 21.9 mph N/A   Overcast
2:10 PM 71.1 °F 64.0 °F 78% 29.91 in 10.0 mi SW 16.1 mph 23.0 mph N/A   Overcast
2:53 PM 72.0 °F 64.0 °F 76% 29.89 in 10.0 mi SW 17.3 mph 26.5 mph N/A   Overcast
3:53 PM 73.9 °F 64.0 °F 71% 29.88 in 10.0 mi SSW 12.7 mph - N/A   Overcast
4:53 PM 72.0 °F 64.0 °F 76% 29.87 in 8.0 mi SSW 15.0 mph 25.3 mph 0.00 in Rain Light Rain
5:53 PM 69.1 °F 66.0 °F 90% 29.87 in 10.0 mi SSW 11.5 mph - 0.01 in   Overcast
6:53 PM 69.1 °F 66.0 °F 90% 29.88 in 10.0 mi SSW 10.4 mph - N/A   Clear
8:53 PM 68.0 °F 64.9 °F 90% 29.91 in 10.0 mi WSW 6.9 mph - N/A   Clear
9:53 PM 66.0 °F 64.0 °F 93% 29.93 in 9.0 mi NNW 3.5 mph - N/A   Clear
10:53 PM 66.0 °F 59.0 °F 78% 29.94 in 10.0 mi NNW 6.9 mph - N/A   Clear
11:53 PM 64.9 °F 55.9 °F 73% 29.94 in 10.0 mi NNW 8.1 mph - N/A   Scattered Clouds